Location: Bergnerzell
(49.1816°N, 10.2565°E)
Time: 21:07:32
(UTC+00:00)

Genesis I - Pass Details

Date: 23 May 2024
Orbit: 432 x 466 km, 64.5° (Epoch: 24 June)

Event Time Altitude Azimuth Distance (km) Brightness Sun altitude
Exits shadow 02:05:25 16° 217° (SW) 1,233 4.4 -10.6°
Maximum altitude 02:08:05 86° 127° (SE) 458 2.9 -10.4°
Drops below altitude 10° 02:11:39 10° 41° (NE) 1,603 7.4 -10.0°
Sets 02:13:47 0° 41° (NE) 2,488 9.1 -9.7°
